Location: ??????
(55.0357°N, 38.6195°E)
Time: 10:19:27
(UTC+00:00)

Meteor 1-27 Rocket - Visible Passes

Search period start: 24 July 2024 00:00
Search period end: 03 August 2024 00:00
Orbit: 829 x 909 km, 81.3° (Epoch: 24 July)

Date Brightness Start Highest point End Pass type
(mag) Time Alt. Az. Time Alt. Az. Time Alt. Az.
24 Jul 6.0 19:40:12 10° N 19:43:52 17° NE 19:47:29 10° E visible
24 Jul 4.0 21:22:40 10° N 21:28:29 65° ENE 21:32:39 19° SSE visible
24 Jul 5.0 23:06:35 10° NNW 23:11:23 27° W 23:15:02 15° SW visible
25 Jul 5.9 19:33:42 10° N 19:37:25 17° NE 19:41:05 10° E visible
25 Jul 4.0 21:16:12 10° N 21:22:00 66° ENE 21:26:00 20° SSE visible
25 Jul 5.0 23:00:08 10° NNW 23:04:53 27° W 23:08:23 15° SW visible
26 Jul 5.9 19:27:13 10° N 19:30:58 17° NE 19:34:40 10° E visible
26 Jul 4.0 21:09:44 10° N 21:15:32 67° ENE 21:19:23 21° SSE visible
26 Jul 5.1 22:53:42 10° NNW 22:58:23 26° W 23:01:46 15° SW visible
27 Jul 5.8 19:20:43 10° N 19:24:31 17° NE 19:28:15 10° E visible
27 Jul 3.9 21:03:15 10° N 21:09:04 68° ENE 21:12:47 22° SSE visible
27 Jul 5.1 22:47:15 10° NNW 22:51:54 26° W 22:55:10 16° SW visible
28 Jul 5.8 19:14:14 10° N 19:18:04 18° NE 19:21:49 10° E visible
28 Jul 3.9 20:56:47 10° NNW 21:02:35 70° ENE 21:06:11 23° SSE visible
28 Jul 5.1 22:40:48 10° NNW 22:45:23 25° W 22:48:34 16° SW visible
29 Jul 5.8 19:07:45 10° N 19:11:36 18° NE 19:15:24 10° E visible
29 Jul 3.9 20:50:19 10° NNW 20:56:06 71° ENE 20:59:37 24° SSE visible
29 Jul 5.2 22:34:21 10° NNW 22:38:54 25° W 22:42:00 16° SW visible
30 Jul 5.7 19:01:15 10° N 19:05:09 18° NE 19:08:58 10° E visible
30 Jul 3.8 20:43:50 10° NNW 20:49:37 72° ENE 20:53:03 25° SSE visible
30 Jul 5.2 22:27:54 10° NNW 22:32:24 24° W 22:35:26 16° SW visible
31 Jul 5.7 18:54:45 10° N 18:58:41 18° NE 19:02:33 10° E visible
31 Jul 3.8 20:37:22 10° NNW 20:43:08 74° ENE 20:46:30 25° SSE visible
31 Jul 5.2 22:21:28 10° NNW 22:25:54 24° W 22:28:53 16° SW visible
01 Aug 5.6 18:48:16 10° N 18:52:14 19° NE 18:56:07 10° E visible
01 Aug 3.8 20:30:53 10° NNW 20:36:39 75° ENE 20:39:57 26° SSE visible
01 Aug 5.3 22:15:01 10° NW 22:19:24 23° W 22:22:21 15° WSW visible
02 Aug 5.6 18:41:46 10° N 18:45:46 19° NE 18:49:41 10° E visible
02 Aug 3.8 20:24:24 10° NNW 20:30:10 76° ENE 20:33:26 26° SSE visible
02 Aug 5.3 22:08:34 10° NW 22:12:53 23° W 22:15:49 15° WSW visible
